| time (UTC) | temp F | wind direction | speed knots | gust knots | rain 1hr in | rain 24hr in | rain mn in | humidity % | barometer mb |
| 20260508132557 | 34 | 0 | 0.0 | 0.0 | 0.00 | 0.00 | 0.00 | 90 | 1025.3 |
| 20260508132058 | 34 | 0 | 0.0 | 0.9 | 0.00 | 0.00 | 0.00 | 91 | 1025.3 |
| 20260508131600 | 34 | 0 | 0.0 | 0.9 | 0.00 | 0.00 | 0.00 | 90 | 1025.2 |
| 20260508131058 | 34 | 168 | 0.0 | 0.0 | 0.00 | 0.00 | 0.00 | 90 | 1025.3 |
| 20260508130602 | 34 | 0 | 0.0 | 0.0 | 0.00 | 0.00 | 0.00 | 89 | 1025.2 |
| 20260508130106 | 35 | 0 | 0.0 | 0.0 | 0.00 | 0.00 | 0.00 | 90 | 1025.1 |
| 20260508125558 | 35 | 0 | 0.0 | 0.0 | 0.00 | 0.00 | 0.00 | 89 | 1025.3 |
| 20260508125058 | 35 | 0 | 0.0 | 0.9 | 0.00 | 0.00 | 0.00 | 90 | 1025.3 |
| 20260508124603 | 35 | 0 | 0.0 | 0.9 | 0.00 | 0.00 | 0.00 | 90 | 1025.3 |
| 20260508124058 | 35 | 174 | 0.0 | 0.9 | 0.00 | 0.00 | 0.00 | 87 | 1025.3 |
| 20260508123558 | 35 | 209 | 0.0 | 1.7 | 0.00 | 0.00 | 0.00 | 88 | 1025.3 |
| 20260508123100 | 35 | 0 | 0.0 | 1.7 | 0.00 | 0.00 | 0.00 | 88 | 1025.3 |
| 20260508122557 | 35 | 183 | 0.0 | 0.9 | 0.00 | 0.00 | 0.00 | 87 | 1025.3 |
| 20260508122100 | 36 | 0 | 0.0 | 0.0 | 0.00 | 0.00 | 0.00 | 90 | 1025.3 |
| 20260508121629 | 36 | 0 | 0.0 | 0.0 | 0.00 | 0.00 | 0.00 | 90 | 1025.2 |
| 20260508121058 | 36 | 0 | 0.0 | 0.0 | 0.00 | 0.00 | 0.00 | 90 | 1025.2 |
| 20260508120556 | 36 | 0 | 0.0 | 0.0 | 0.00 | 0.00 | 0.00 | 88 | 1025.0 |
| 20260508120057 | 36 | 0 | 0.0 | 0.0 | 0.00 | 0.00 | 0.00 | 86 | 1025.1 |
| 20260508115557 | 36 | 0 | 0.0 | 1.7 | 0.00 | 0.00 | 0.00 | 86 | 1025.1 |
| 20260508115059 | 36 | 0 | 0.0 | 1.7 | 0.00 | 0.00 | 0.00 | 86 | 1025.1 |
| 20260508114555 | 36 | 0 | 0.9 | 1.7 | 0.00 | 0.00 | 0.00 | 86 | 1025.1 |
| 20260508114057 | 37 | 0 | 0.0 | 0.9 | 0.00 | 0.00 | 0.00 | 85 | 1025.1 |
| 20260508113559 | 37 | 0 | 0.0 | 0.9 | 0.00 | 0.00 | 0.00 | 88 | 1025.2 |
| 20260508113104 | 36 | 168 | 0.0 | 0.9 | 0.00 | 0.00 | 0.00 | 84 | 1025.1 |
| 20260508112557 | 37 | 0 | 0.0 | 0.9 | 0.00 | 0.00 | 0.00 | 85 | 1025.2 |
| 20260508112058 | 37 | 0 | 0.0 | 0.9 | 0.00 | 0.00 | 0.00 | 86 | 1025.0 |
| 20260508111607 | 38 | 0 | 0.0 | 0.9 | 0.00 | 0.00 | 0.00 | 88 | 1025.1 |
| 20260508111059 | 37 | 172 | 0.0 | 0.9 | 0.00 | 0.00 | 0.00 | 84 | 1025.1 |
| 20260508110559 | 37 | 181 | 0.0 | 0.9 | 0.00 | 0.00 | 0.00 | 87 | 1025.3 |
| 20260508110059 | 37 | 0 | 0.0 | 0.0 | 0.00 | 0.00 | 0.00 | 83 | 1025.2 |
| 20260508105557 | 38 | 0 | 0.0 | 0.0 | 0.00 | 0.00 | 0.00 | 85 | 1025.3 |
| 20260508105057 | 38 | 0 | 0.0 | 0.0 | 0.00 | 0.00 | 0.00 | 86 | 1025.4 |
| 20260508104604 | 38 | 0 | 0.0 | 0.0 | 0.00 | 0.00 | 0.00 | 84 | 1025.3 |
| 20260508104057 | 38 | 0 | 0.0 | 0.0 | 0.00 | 0.00 | 0.00 | 81 | 1025.4 |
| 20260508103556 | 38 | 0 | 0.0 | 0.0 | 0.00 | 0.00 | 0.00 | 83 | 1025.4 |
| 20260508103057 | 38 | 0 | 0.0 | 0.9 | 0.00 | 0.00 | 0.00 | 85 | 1025.5 |
| 20260508102557 | 38 | 0 | 0.0 | 1.7 | 0.00 | 0.00 | 0.00 | 83 | 1025.5 |
| 20260508102101 | 38 | 0 | 0.0 | 1.7 | 0.00 | 0.00 | 0.00 | 81 | 1025.3 |
| 20260508101557 | 39 | 0 | 0.0 | 0.0 | 0.00 | 0.00 | 0.00 | 81 | 1025.5 |
| 20260508101058 | 39 | 0 | 0.0 | 0.0 | 0.00 | 0.00 | 0.00 | 82 | 1025.3 |
| 20260508100601 | 39 | 0 | 0.0 | 0.9 | 0.00 | 0.00 | 0.00 | 81 | 1025.4 |
| 20260508095558 | 40 | 0 | 0.0 | 0.0 | 0.00 | 0.00 | 0.00 | 79 | 1025.5 |
| 20260508095105 | 41 | 0 | 0.0 | 1.7 | 0.00 | 0.00 | 0.00 | 79 | 1025.3 |
| 20260508094607 | 41 | 0 | 0.0 | 1.7 | 0.00 | 0.00 | 0.00 | 80 | 1025.4 |
| 20260508094055 | 41 | 0 | 0.0 | 1.7 | 0.00 | 0.00 | 0.00 | 81 | 1025.3 |
| 20260508093555 | 41 | 0 | 0.0 | 0.9 | 0.00 | 0.00 | 0.00 | 79 | 1025.3 |
| 20260508093100 | 41 | 181 | 0.0 | 0.9 | 0.00 | 0.00 | 0.00 | 80 | 1025.4 |
| 20260508092558 | 42 | 0 | 0.0 | 0.0 | 0.00 | 0.00 | 0.00 | 78 | 1025.3 |
| 20260508092057 | 42 | 0 | 0.0 | 0.9 | 0.00 | 0.00 | 0.00 | 79 | 1025.4 |
| 20260508091606 | 43 | 0 | 0.0 | 0.9 | 0.00 | 0.00 | 0.00 | 79 | 1025.3 |
| 20260508091057 | 42 | 181 | 0.0 | 1.7 | 0.00 | 0.00 | 0.00 | 81 | 1025.2 |
| 20260508090557 | 42 | 0 | 0.0 | 1.7 | 0.00 | 0.00 | 0.00 | 78 | 1025.3 |
| 20260508090111 | 43 | 181 | 0.0 | 1.7 | 0.00 | 0.00 | 0.00 | 77 | 1025.3 |
| 20260508085557 | 43 | 0 | 0.0 | 0.0 | 0.00 | 0.00 | 0.00 | 78 | 1025.3 |
| 20260508085056 | 43 | 0 | 0.0 | 0.9 | 0.00 | 0.00 | 0.00 | 77 | 1025.3 |
| 20260508084607 | 43 | 0 | 0.0 | 0.9 | 0.00 | 0.00 | 0.00 | 78 | 1025.5 |
| 20260508084058 | 43 | 0 | 0.0 | 0.9 | 0.00 | 0.00 | 0.00 | 79 | 1025.5 |
| 20260508083558 | 44 | 0 | 0.0 | 0.0 | 0.00 | 0.00 | 0.00 | 76 | 1025.5 |
| 20260508083055 | 45 | 0 | 0.0 | 0.0 | 0.00 | 0.00 | 0.00 | 77 | 1025.7 |
| 20260508082559 | 45 | 0 | 0.0 | 1.7 | 0.00 | 0.00 | 0.00 | 79 | 1025.6 |
| 20260508082055 | 44 | 0 | 0.9 | 1.7 | 0.00 | 0.00 | 0.00 | 79 | 1025.7 |
| 20260508081610 | 44 | 195 | 0.0 | 1.7 | 0.00 | 0.00 | 0.00 | 76 | 1025.7 |
| 20260508081059 | 44 | 169 | 0.0 | 1.7 | 0.00 | 0.00 | 0.00 | 75 | 1025.9 |
| 20260508080555 | 45 | 0 | 0.0 | 0.0 | 0.00 | 0.00 | 0.00 | 77 | 1025.8 |
| 20260508080101 | 45 | 0 | 0.0 | 0.0 | 0.00 | 0.00 | 0.00 | 78 | 1025.8 |
| 20260508075559 | 45 | 0 | 0.0 | 0.0 | 0.00 | 0.00 | 0.00 | 76 | 1025.7 |
| 20260508075056 | 46 | 0 | 0.0 | 0.0 | 0.00 | 0.00 | 0.00 | 75 | 1025.8 |
| 20260508074558 | 46 | 0 | 0.0 | 0.0 | 0.00 | 0.00 | 0.00 | 76 | 1025.8 |
| 20260508074059 | 46 | 0 | 0.0 | 0.9 | 0.00 | 0.00 | 0.00 | 77 | 1025.7 |
| 20260508073559 | 46 | 0 | 0.0 | 0.9 | 0.00 | 0.00 | 0.00 | 75 | 1025.7 |
| 20260508073107 | 46 | 210 | 0.0 | 0.0 | 0.00 | 0.00 | 0.00 | 77 | 1025.9 |
| 20260508072558 | 47 | 0 | 0.0 | 0.0 | 0.00 | 0.00 | 0.00 | 74 | 1025.9 |
| 20260508072058 | 47 | 0 | 0.0 | 0.0 | 0.00 | 0.00 | 0.00 | 76 | 1025.9 |
| 20260508071622 | 47 | 0 | 0.0 | 0.0 | 0.00 | 0.00 | 0.00 | 76 | 1025.8 |
| 20260508071059 | 48 | 0 | 0.0 | 0.0 | 0.00 | 0.00 | 0.00 | 76 | 1025.8 |
| 20260508070559 | 48 | 0 | 0.0 | 0.0 | 0.00 | 0.00 | 0.00 | 76 | 1025.8 |
| 20260508065558 | 49 | 0 | 0.0 | 0.0 | 0.00 | 0.00 | 0.00 | 77 | 1025.9 |
| 20260508065059 | 49 | 0 | 0.0 | 0.0 | 0.00 | 0.00 | 0.00 | 76 | 1025.9 |
| 20260508064556 | 50 | 0 | 0.0 | 0.0 | 0.00 | 0.00 | 0.00 | 74 | 1025.8 |
| 20260508064059 | 50 | 0 | 0.0 | 1.7 | 0.00 | 0.00 | 0.00 | 74 | 1025.8 |
| 20260508063559 | 51 | 0 | 0.0 | 1.7 | 0.00 | 0.00 | 0.00 | 74 | 1025.6 |
| 20260508063058 | 51 | 93 | 0.0 | 1.7 | 0.00 | 0.00 | 0.00 | 75 | 1025.5 |
| 20260508062558 | 51 | 149 | 0.0 | 0.9 | 0.00 | 0.00 | 0.00 | 74 | 1025.6 |
| 20260508062059 | 52 | 0 | 0.0 | 3.5 | 0.00 | 0.00 | 0.00 | 72 | 1025.3 |
| 20260508061559 | 52 | 0 | 0.9 | 3.5 | 0.00 | 0.00 | 0.00 | 73 | 1025.4 |
| 20260508061100 | 52 | 55 | 1.7 | 4.3 | 0.00 | 0.00 | 0.00 | 72 | 1025.4 |
| 20260508060559 | 52 | 124 | 1.7 | 4.3 | 0.00 | 0.00 | 0.00 | 73 | 1025.3 |
| 20260508060058 | 52 | 57 | 2.6 | 4.3 | 0.00 | 0.00 | 0.00 | 73 | 1025.3 |
| 20260508055600 | 52 | 0 | 0.9 | 2.6 | 0.00 | 0.00 | 0.00 | 71 | 1025.5 |
| 20260508055059 | 52 | 57 | 1.7 | 2.6 | 0.00 | 0.00 | 0.00 | 72 | 1025.5 |
| 20260508054612 | 52 | 53 | 0.9 | 2.6 | 0.00 | 0.00 | 0.00 | 72 | 1025.6 |
| 20260508054102 | 52 | 0 | 0.9 | 1.7 | 0.00 | 0.00 | 0.00 | 70 | 1025.5 |
| 20260508053602 | 52 | 0 | 0.0 | 0.0 | 0.00 | 0.00 | 0.00 | 69 | 1025.5 |
| 20260508053059 | 53 | 0 | 0.0 | 0.0 | 0.00 | 0.00 | 0.00 | 69 | 1025.6 |
| 20260508052559 | 53 | 0 | 0.0 | 0.0 | 0.00 | 0.00 | 0.00 | 68 | 1025.5 |
| 20260508052058 | 54 | 0 | 0.0 | 0.0 | 0.00 | 0.00 | 0.00 | 66 | 1025.6 |
| 20260508051558 | 54 | 0 | 0.0 | 0.0 | 0.00 | 0.00 | 0.00 | 68 | 1025.6 |
| 20260508051059 | 54 | 0 | 0.0 | 1.7 | 0.00 | 0.00 | 0.00 | 67 | 1025.6 |
| 20260508050559 | 54 | 0 | 0.0 | 1.7 | 0.00 | 0.00 | 0.00 | 62 | 1025.6 |
| 20260508045559 | 56 | 283 | 0.0 | 0.9 | 0.00 | 0.00 | 0.00 | 62 | 1025.7 |
| 20260508045059 | 56 | 0 | 0.0 | 2.6 | 0.00 | 0.00 | 0.00 | 62 | 1025.7 |
| 20260508044603 | 56 | 0 | 0.0 | 3.5 | 0.00 | 0.00 | 0.00 | 62 | 1025.7 |
| 20260508044058 | 56 | 0 | 0.9 | 3.5 | 0.00 | 0.00 | 0.00 | 62 | 1025.5 |
| 20260508043557 | 56 | 0 | 0.9 | 3.5 | 0.00 | 0.00 | 0.00 | 61 | 1025.7 |
| 20260508043100 | 57 | 0 | 0.0 | 4.3 | 0.00 | 0.00 | 0.00 | 59 | 1025.5 |
| 20260508042559 | 57 | 58 | 0.0 | 4.3 | 0.00 | 0.00 | 0.00 | 58 | 1025.5 |
| 20260508042057 | 57 | 174 | 0.9 | 7.8 | 0.00 | 0.00 | 0.00 | 58 | 1025.3 |
| 20260508041557 | 58 | 0 | 2.6 | 7.8 | 0.00 | 0.00 | 0.00 | 58 | 1025.2 |
| 20260508041057 | 58 | 83 | 0.0 | 3.5 | 0.00 | 0.00 | 0.00 | 57 | 1025.1 |
| 20260508040557 | 58 | 233 | 0.0 | 3.5 | 0.00 | 0.00 | 0.00 | 56 | 1025.1 |
| 20260508040101 | 58 | 54 | 1.7 | 3.5 | 0.00 | 0.00 | 0.00 | 55 | 1024.8 |
| 20260508035556 | 58 | 137 | 0.0 | 4.3 | 0.00 | 0.00 | 0.00 | 56 | 1024.9 |
| 20260508035057 | 58 | 156 | 0.9 | 6.1 | 0.00 | 0.00 | 0.00 | 55 | 1024.7 |
| 20260508034555 | 58 | 112 | 2.6 | 6.1 | 0.00 | 0.00 | 0.00 | 53 | 1024.6 |
| 20260508034056 | 59 | 0 | 1.7 | 3.5 | 0.00 | 0.00 | 0.00 | 52 | 1024.5 |
| 20260508033557 | 59 | 178 | 0.0 | 3.5 | 0.00 | 0.00 | 0.00 | 51 | 1024.4 |
| 20260508033115 | 59 | 0 | 0.9 | 11.3 | 0.00 | 0.00 | 0.00 | 51 | 1024.2 |
| 20260508032555 | 59 | 58 | 5.2 | 11.3 | 0.00 | 0.00 | 0.00 | 50 | 1024.0 |
| 20260508032100 | 59 | 51 | 5.2 | 7.8 | 0.00 | 0.00 | 0.00 | 49 | 1023.9 |
| 20260508031556 | 59 | 150 | 0.9 | 1.7 | 0.00 | 0.00 | 0.00 | 44 | 1024.0 |
| 20260508031057 | 60 | 0 | 0.0 | 1.7 | 0.00 | 0.00 | 0.00 | 42 | 1023.8 |
| 20260508030557 | 60 | 0 | 0.0 | 1.7 | 0.00 | 0.00 | 0.00 | 42 | 1023.8 |
| 20260508030108 | 61 | 0 | 0.9 | 1.7 | 0.00 | 0.00 | 0.00 | 41 | 1023.7 |
| 20260508025557 | 62 | 0 | 0.0 | 1.7 | 0.00 | 0.00 | 0.00 | 40 | 1023.7 |
| 20260508025058 | 63 | 0 | 0.0 | 2.6 | 0.00 | 0.00 | 0.00 | 39 | 1023.6 |
| 20260508024619 | 63 | 0 | 0.0 | 3.5 | 0.00 | 0.00 | 0.00 | 39 | 1023.7 |
| 20260508024059 | 63 | 260 | 0.9 | 4.3 | 0.00 | 0.00 | 0.00 | 39 | 1023.6 |
| 20260508023556 | 64 | 109 | 0.0 | 5.2 | 0.00 | 0.00 | 0.00 | 39 | 1023.5 |
| 20260508023055 | 64 | 278 | 2.6 | 5.2 | 0.00 | 0.00 | 0.00 | 38 | 1023.5 |
| 20260508022559 | 64 | 271 | 0.9 | 5.2 | 0.00 | 0.00 | 0.00 | 37 | 1023.4 |
| 20260508022056 | 65 | 294 | 0.9 | 4.3 | 0.00 | 0.00 | 0.00 | 38 | 1023.3 |
| 20260508021558 | 65 | 286 | 0.9 | 5.2 | 0.00 | 0.00 | 0.00 | 38 | 1023.3 |
| 20260508021056 | 65 | 257 | 0.0 | 5.2 | 0.00 | 0.00 | 0.00 | 37 | 1023.3 |
| 20260508020557 | 66 | 260 | 0.0 | 5.2 | 0.00 | 0.00 | 0.00 | 37 | 1023.3 |
| 20260508020111 | 66 | 271 | 0.9 | 5.2 | 0.00 | 0.00 | 0.00 | 36 | 1023.2 |
| 20260508015558 | 67 | 48 | 0.9 | 5.2 | 0.00 | 0.00 | 0.00 | 35 | 1023.2 |
| 20260508015100 | 67 | 0 | 0.0 | 5.2 | 0.00 | 0.00 | 0.00 | 35 | 1023.2 |
| 20260508014613 | 67 | 52 | 0.9 | 6.1 | 0.00 | 0.00 | 0.00 | 35 | 1023.2 |
| 20260508014058 | 68 | 108 | 1.7 | 6.1 | 0.00 | 0.00 | 0.00 | 34 | 1023.2 |
| 20260508013557 | 69 | 0 | 0.9 | 5.2 | 0.00 | 0.00 | 0.00 | 33 | 1023.2 |
| 20260508013107 | 70 | 232 | 1.7 | 5.2 | 0.00 | 0.00 | 0.00 | 31 | 1023.1 |
| 20260508012557 | 70 | 117 | 0.0 | 4.3 | 0.00 | 0.00 | 0.00 | 32 | 1023.3 |
| 20260508012057 | 70 | 16 | 0.9 | 6.1 | 0.00 | 0.00 | 0.00 | 31 | 1023.3 |
| 20260508011603 | 70 | 0 | 0.0 | 6.1 | 0.00 | 0.00 | 0.00 | 31 | 1023.3 |
| 20260508011102 | 71 | 45 | 1.7 | 7.0 | 0.00 | 0.00 | 0.00 | 31 | 1023.2 |
| 20260508010557 | 71 | 34 | 1.7 | 9.6 | 0.00 | 0.00 | 0.00 | 31 | 1023.1 |
| 20260508010105 | 71 | 250 | 0.9 | 10.4 | 0.00 | 0.00 | 0.00 | 31 | 1023.2 |
| 20260508005557 | 71 | 266 | 1.7 | 11.3 | 0.00 | 0.00 | 0.00 | 31 | 1023.1 |
| 20260508005057 | 71 | 207 | 1.7 | 11.3 | 0.00 | 0.00 | 0.00 | 30 | 1023.1 |
| 20260508004556 | 72 | 238 | 1.7 | 11.3 | 0.00 | 0.00 | 0.00 | 30 | 1023.1 |
| 20260508004057 | 72 | 255 | 3.5 | 7.0 | 0.00 | 0.00 | 0.00 | 30 | 1023.1 |
| 20260508003556 | 72 | 290 | 0.0 | 6.1 | 0.00 | 0.00 | 0.00 | 30 | 1023.1 |
| 20260508003057 | 72 | 266 | 0.9 | 7.0 | 0.00 | 0.00 | 0.00 | 28 | 1023.1 |
| 20260508002556 | 73 | 33 | 1.7 | 9.6 | 0.00 | 0.00 | 0.00 | 28 | 1023.1 |
| 20260508002056 | 73 | 351 | 2.6 | 9.6 | 0.00 | 0.00 | 0.00 | 29 | 1023.0 |
| 20260508001559 | 73 | 117 | 2.6 | 9.6 | 0.00 | 0.00 | 0.00 | 28 | 1023.1 |
| 20260508001056 | 74 | 34 | 2.6 | 8.7 | 0.00 | 0.00 | 0.00 | 28 | 1023.1 |
| 20260508000558 | 74 | 226 | 1.7 | 12.2 | 0.00 | 0.00 | 0.00 | 27 | 1023.0 |
| 20260508000057 | 74 | 219 | 0.9 | 12.2 | 0.00 | 0.00 | 0.00 | 27 | 1022.9 |
| 20260507235557 | 75 | 101 | 1.7 | 7.8 | 0.00 | 0.00 | 0.00 | 27 | 1022.9 |
| 20260507235057 | 75 | 198 | 0.9 | 7.8 | 0.00 | 0.00 | 0.00 | 27 | 1022.9 |
| 20260507234557 | 75 | 275 | 1.7 | 6.1 | 0.00 | 0.00 | 0.00 | 24 | 1022.8 |
| 20260507234057 | 75 | 0 | 1.7 | 6.1 | 0.00 | 0.00 | 0.00 | 24 | 1022.8 |
| 20260507233557 | 75 | 233 | 0.9 | 4.3 | 0.00 | 0.00 | 0.00 | 22 | 1022.6 |
| 20260507233055 | 75 | 0 | 0.0 | 5.2 | 0.00 | 0.00 | 0.00 | 23 | 1022.9 |
| 20260507232556 | 75 | 252 | 0.9 | 9.6 | 0.00 | 0.00 | 0.00 | 23 | 1022.7 |
| 20260507232056 | 75 | 273 | 1.7 | 9.6 | 0.00 | 0.00 | 0.00 | 23 | 1023.0 |
| 20260507231557 | 75 | 117 | 2.6 | 9.6 | 0.00 | 0.00 | 0.00 | 24 | 1022.9 |
| 20260507231059 | 75 | 0 | 0.9 | 8.7 | 0.00 | 0.00 | 0.00 | 23 | 1023.0 |
| 20260507230559 | 75 | 299 | 1.7 | 8.7 | 0.00 | 0.00 | 0.00 | 20 | 1023.0 |
| 20260507230057 | 76 | 137 | 2.6 | 8.7 | 0.00 | 0.00 | 0.00 | 21 | 1023.1 |
| 20260507225557 | 75 | 72 | 1.7 | 7.0 | 0.00 | 0.00 | 0.00 | 22 | 1023.0 |
| 20260507225055 | 75 | 0 | 0.0 | 6.1 | 0.00 | 0.00 | 0.00 | 19 | 1023.2 |
| 20260507224602 | 75 | 224 | 1.7 | 6.1 | 0.00 | 0.00 | 0.00 | 21 | 1023.1 |
| 20260507224057 | 75 | 338 | 1.7 | 5.2 | 0.00 | 0.00 | 0.00 | 19 | 1023.1 |
| 20260507223557 | 75 | 19 | 0.9 | 8.7 | 0.00 | 0.00 | 0.00 | 21 | 1023.4 |
| 20260507223058 | 75 | 247 | 0.9 | 8.7 | 0.00 | 0.00 | 0.00 | 19 | 1023.5 |
| 20260507222559 | 74 | 227 | 1.7 | 6.1 | 0.00 | 0.00 | 0.00 | 20 | 1023.5 |
| 20260507222059 | 75 | 38 | 0.0 | 3.5 | 0.00 | 0.00 | 0.00 | 17 | 1023.5 |
| 20260507221559 | 75 | 155 | 0.9 | 3.5 | 0.00 | 0.00 | 0.00 | 18 | 1023.5 |
| 20260507221059 | 74 | 154 | 0.9 | 7.8 | 0.00 | 0.00 | 0.00 | 19 | 1023.5 |
| 20260507220558 | 75 | 74 | 0.9 | 7.8 | 0.00 | 0.00 | 0.00 | 18 | 1023.6 |
| 20260507220059 | 75 | 171 | 0.9 | 4.3 | 0.00 | 0.00 | 0.00 | 17 | 1023.7 |
| 20260507215559 | 76 | 257 | 0.9 | 4.3 | 0.00 | 0.00 | 0.00 | 16 | 1023.7 |
| 20260507215059 | 76 | 100 | 0.9 | 5.2 | 0.00 | 0.00 | 0.00 | 18 | 1023.9 |
| 20260507214557 | 75 | 214 | 2.6 | 5.2 | 0.00 | 0.00 | 0.00 | 17 | 1023.8 |
| 20260507214100 | 76 | 207 | 0.0 | 5.2 | 0.00 | 0.00 | 0.00 | 18 | 1024.0 |
| 20260507213601 | 76 | 134 | 1.7 | 8.7 | 0.00 | 0.00 | 0.00 | 18 | 1023.9 |
| 20260507213101 | 76 | 229 | 1.7 | 8.7 | 0.00 | 0.00 | 0.00 | 18 | 1024.0 |
| 20260507212558 | 75 | 198 | 3.5 | 7.8 | 0.00 | 0.00 | 0.00 | 18 | 1024.0 |
| 20260507212058 | 75 | 169 | 2.6 | 7.8 | 0.00 | 0.00 | 0.00 | 18 | 1024.0 |
| 20260507211558 | 75 | 146 | 2.6 | 12.2 | 0.00 | 0.00 | 0.00 | 17 | 1024.1 |
| 20260507211058 | 76 | 157 | 3.5 | 12.2 | 0.00 | 0.00 | 0.00 | 16 | 1024.1 |
| 20260507210602 | 76 | 242 | 4.3 | 12.2 | 0.00 | 0.00 | 0.00 | 18 | 1024.1 |
| 20260507210057 | 76 | 243 | 1.7 | 8.7 | 0.00 | 0.00 | 0.00 | 17 | 1024.2 |
| 20260507205559 | 76 | 176 | 3.5 | 8.7 | 0.00 | 0.00 | 0.00 | 18 | 1024.1 |
| 20260507205059 | 77 | 160 | 0.9 | 8.7 | 0.00 | 0.00 | 0.00 | 17 | 1024.2 |
| 20260507204559 | 76 | 250 | 4.3 | 8.7 | 0.00 | 0.00 | 0.00 | 18 | 1024.2 |
| 20260507204056 | 77 | 143 | 2.6 | 7.0 | 0.00 | 0.00 | 0.00 | 18 | 1024.3 |
| 20260507203559 | 76 | 279 | 2.6 | 7.0 | 0.00 | 0.00 | 0.00 | 18 | 1024.3 |
| 20260507203102 | 76 | 25 | 2.6 | 7.0 | 0.00 | 0.00 | 0.00 | 19 | 1024.4 |
| 20260507202558 | 76 | 243 | 1.7 | 6.1 | 0.00 | 0.00 | 0.00 | 15 | 1024.4 |
| 20260507202058 | 76 | 229 | 2.6 | 7.8 | 0.00 | 0.00 | 0.00 | 17 | 1024.5 |
| 20260507201558 | 76 | 196 | 2.6 | 7.8 | 0.00 | 0.00 | 0.00 | 17 | 1024.6 |
| 20260507201059 | 76 | 161 | 2.6 | 7.0 | 0.00 | 0.00 | 0.00 | 18 | 1024.6 |
| 20260507200600 | 76 | 274 | 1.7 | 6.1 | 0.00 | 0.00 | 0.00 | 17 | 1024.7 |
| 20260507200058 | 75 | 0 | 0.9 | 7.0 | 0.00 | 0.00 | 0.00 | 15 | 1024.7 |
| 20260507195558 | 75 | 227 | 0.9 | 7.0 | 0.00 | 0.00 | 0.00 | 16 | 1024.7 |
| 20260507195058 | 74 | 140 | 1.7 | 7.0 | 0.00 | 0.00 | 0.00 | 18 | 1024.7 |
| 20260507194613 | 74 | 58 | 1.7 | 7.0 | 0.00 | 0.00 | 0.00 | 17 | 1024.8 |
| 20260507194056 | 74 | 16 | 1.7 | 7.0 | 0.00 | 0.00 | 0.00 | 17 | 1024.7 |
| 20260507193557 | 72 | 67 | 1.7 | 7.0 | 0.00 | 0.00 | 0.00 | 18 | 1024.8 |
| 20260507193100 | 74 | 65 | 1.7 | 7.0 | 0.00 | 0.00 | 0.00 | 16 | 1025.0 |
| 20260507192559 | 75 | 134 | 0.9 | 3.5 | 0.00 | 0.00 | 0.00 | 17 | 1025.1 |
| 20260507192059 | 74 | 319 | 0.9 | 3.5 | 0.00 | 0.00 | 0.00 | 18 | 1025.2 |
| 20260507191604 | 74 | 305 | 0.9 | 5.2 | 0.00 | 0.00 | 0.00 | 17 | 1025.2 |
| 20260507191059 | 72 | 316 | 2.6 | 7.8 | 0.00 | 0.00 | 0.00 | 17 | 1025.2 |
| 20260507190559 | 72 | 326 | 2.6 | 7.8 | 0.00 | 0.00 | 0.00 | 18 | 1025.1 |
| 20260507185559 | 72 | 12 | 1.7 | 5.2 | 0.00 | 0.00 | 0.00 | 19 | 1025.4 |
| 20260507185058 | 71 | 302 | 0.9 | 5.2 | 0.00 | 0.00 | 0.00 | 20 | 1025.5 |
| 20260507184559 | 70 | 49 | 2.6 | 7.0 | 0.00 | 0.00 | 0.00 | 19 | 1025.6 |
| 20260507184059 | 70 | 90 | 2.6 | 7.0 | 0.00 | 0.00 | 0.00 | 21 | 1025.6 |
| 20260507183602 | 71 | 342 | 1.7 | 5.2 | 0.00 | 0.00 | 0.00 | 19 | 1025.7 |
| 20260507183106 | 70 | 16 | 1.7 | 3.5 | 0.00 | 0.00 | 0.00 | 19 | 1025.7 |
| 20260507182558 | 69 | 40 | 1.7 | 5.2 | 0.00 | 0.00 | 0.00 | 18 | 1025.6 |
| 20260507182058 | 69 | 60 | 0.9 | 5.2 | 0.00 | 0.00 | 0.00 | 17 | 1025.6 |
| 20260507181558 | 68 | 50 | 2.6 | 5.2 | 0.00 | 0.00 | 0.00 | 18 | 1025.8 |
| 20260507181058 | 69 | 355 | 2.6 | 5.2 | 0.00 | 0.00 | 0.00 | 21 | 1026.0 |
| 20260507180559 | 68 | 55 | 2.6 | 8.7 | 0.00 | 0.00 | 0.00 | 22 | 1026.0 |
| 20260507180059 | 67 | 47 | 1.7 | 8.7 | 0.00 | 0.00 | 0.00 | 23 | 1026.1 |
| 20260507175556 | 67 | 75 | 1.7 | 8.7 | 0.00 | 0.00 | 0.00 | 20 | 1026.0 |
| 20260507175059 | 66 | 67 | 2.6 | 6.1 | 0.00 | 0.00 | 0.00 | 24 | 1026.0 |
| 20260507174556 | 66 | 45 | 1.7 | 5.2 | 0.00 | 0.00 | 0.00 | 21 | 1026.0 |
| 20260507174058 | 66 | 50 | 1.7 | 5.2 | 0.00 | 0.00 | 0.00 | 22 | 1026.2 |
| 20260507173558 | 65 | 94 | 1.7 | 4.3 | 0.00 | 0.00 | 0.00 | 26 | 1026.2 |
| 20260507173109 | 64 | 358 | 2.6 | 4.3 | 0.00 | 0.00 | 0.00 | 27 | 1026.2 |
| 20260507172602 | 64 | 46 | 2.6 | 4.3 | 0.00 | 0.00 | 0.00 | 26 | 1026.2 |
| 20260507172058 | 64 | 51 | 2.6 | 3.5 | 0.00 | 0.00 | 0.00 | 32 | 1026.2 |
| 20260507171559 | 65 | 338 | 1.7 | 4.3 | 0.00 | 0.00 | 0.00 | 33 | 1026.2 |
| 20260507171058 | 65 | 49 | 1.7 | 4.3 | 0.00 | 0.00 | 0.00 | 35 | 1026.2 |
| 20260507170558 | 63 | 79 | 0.9 | 3.5 | 0.00 | 0.00 | 0.00 | 33 | 1026.2 |
| 20260507165558 | 62 | 49 | 1.7 | 2.6 | 0.00 | 0.00 | 0.00 | 35 | 1026.2 |
| 20260507165058 | 61 | 45 | 1.7 | 3.5 | 0.00 | 0.00 | 0.00 | 39 | 1026.2 |
| 20260507164557 | 60 | 57 | 2.6 | 3.5 | 0.00 | 0.00 | 0.00 | 39 | 1026.3 |
| 20260507164058 | 60 | 74 | 0.9 | 3.5 | 0.00 | 0.00 | 0.00 | 39 | 1026.2 |
| 20260507163558 | 59 | 58 | 1.7 | 3.5 | 0.00 | 0.00 | 0.00 | 41 | 1026.3 |
| 20260507163100 | 60 | 36 | 0.9 | 3.5 | 0.00 | 0.00 | 0.00 | 41 | 1026.3 |
| 20260507162558 | 59 | 322 | 0.9 | 2.6 | 0.00 | 0.00 | 0.00 | 41 | 1026.4 |
| 20260507162101 | 58 | 48 | 0.9 | 2.6 | 0.00 | 0.00 | 0.00 | 45 | 1026.5 |
| 20260507161600 | 57 | 13 | 0.0 | 3.5 | 0.00 | 0.00 | 0.00 | 47 | 1026.4 |
| 20260507161058 | 56 | 0 | 0.9 | 3.5 | 0.00 | 0.00 | 0.00 | 45 | 1026.4 |
| 20260507160559 | 55 | 0 | 0.9 | 3.5 | 0.00 | 0.00 | 0.00 | 47 | 1026.4 |
| 20260507160057 | 53 | 91 | 1.7 | 3.5 | 0.00 | 0.00 | 0.00 | 48 | 1026.5 |
| 20260507155558 | 53 | 86 | 0.9 | 2.6 | 0.00 | 0.00 | 0.00 | 49 | 1026.5 |
| 20260507155101 | 52 | 97 | 0.9 | 2.6 | 0.00 | 0.00 | 0.00 | 50 | 1026.7 |
| 20260507154559 | 51 | 92 | 0.9 | 2.6 | 0.00 | 0.00 | 0.00 | 52 | 1026.8 |
| 20260507154058 | 51 | 77 | 0.9 | 3.5 | 0.00 | 0.00 | 0.00 | 56 | 1026.9 |
| 20260507153557 | 51 | 32 | 1.7 | 3.5 | 0.00 | 0.00 | 0.00 | 56 | 1026.9 |
| 20260507153108 | 50 | 351 | 0.9 | 2.6 | 0.00 | 0.00 | 0.00 | 58 | 1026.9 |
| 20260507152558 | 49 | 27 | 0.9 | 2.6 | 0.00 | 0.00 | 0.00 | 59 | 1027.0 |
| 20260507152057 | 48 | 84 | 0.9 | 1.7 | 0.00 | 0.00 | 0.00 | 61 | 1027.0 |
| 20260507151558 | 48 | 60 | 0.0 | 1.7 | 0.00 | 0.00 | 0.00 | 62 | 1027.0 |
| 20260507151059 | 47 | 103 | 0.9 | 1.7 | 0.00 | 0.00 | 0.00 | 62 | 1027.0 |
| 20260507150558 | 47 | 0 | 0.0 | 0.0 | 0.00 | 0.00 | 0.00 | 66 | 1027.1 |
| 20260507150109 | 46 | 0 | 0.0 | 0.0 | 0.00 | 0.00 | 0.00 | 67 | 1027.1 |
| 20260507145558 | 46 | 0 | 0.0 | 0.9 | 0.00 | 0.00 | 0.00 | 69 | 1027.1 |
| 20260507145058 | 45 | 0 | 0.0 | 0.9 | 0.00 | 0.00 | 0.00 | 71 | 1027.2 |
| 20260507144559 | 45 | 0 | 0.0 | 0.9 | 0.00 | 0.00 | 0.00 | 71 | 1027.2 |
| 20260507144059 | 44 | 0 | 0.0 | 0.9 | 0.00 | 0.00 | 0.00 | 71 | 1027.1 |
| 20260507143558 | 43 | 0 | 0.0 | 0.9 | 0.00 | 0.00 | 0.00 | 72 | 1027.2 |
| 20260507143107 | 43 | 0 | 0.0 | 0.9 | 0.00 | 0.00 | 0.00 | 73 | 1027.2 |
| 20260507142558 | 42 | 0 | 0.0 | 0.9 | 0.00 | 0.00 | 0.00 | 73 | 1027.2 |
| 20260507142057 | 42 | 56 | 0.0 | 0.0 | 0.00 | 0.00 | 0.00 | 73 | 1027.2 |
| 20260507141559 | 42 | 0 | 0.0 | 0.9 | 0.00 | 0.00 | 0.00 | 75 | 1027.3 |
| 20260507141058 | 40 | 0 | 0.0 | 0.9 | 0.00 | 0.00 | 0.00 | 77 | 1027.1 |
| 20260507140555 | 39 | 0 | 0.0 | 0.9 | 0.00 | 0.00 | 0.00 | 78 | 1027.2 |
| 20260507135557 | 36 | 141 | 0.0 | 0.0 | 0.00 | 0.00 | 0.00 | 82 | 1027.1 |
| 20260507135057 | 35 | 0 | 0.0 | 1.7 | 0.00 | 0.00 | 0.00 | 84 | 1027.1 |
| 20260507134601 | 33 | 0 | 0.0 | 1.7 | 0.00 | 0.00 | 0.00 | 84 | 1027.3 |
| 20260507134058 | 32 | 0 | 0.9 | 1.7 | 0.00 | 0.00 | 0.00 | 84 | 1027.1 |
| 20260507133558 | 32 | 174 | 0.0 | 0.0 | 0.00 | 0.00 | 0.00 | 83 | 1027.1 |
| 20260507133100 | 32 | 0 | 0.0 | 0.0 | 0.00 | 0.00 | 0.00 | 82 | 1027.1 |